Location: Beneden-Haastrecht
(52.0012°N, 4.7557°E)
Time: 13:45:50
(UTC+00:00)

USA 215 - Pass Details

Date: 24 October 2020
Orbit: 1102 x 1106 km, 123.0° (Epoch: 23 November)

Event Time Altitude Azimuth Distance (km) Brightness Sun altitude
Exits shadow 18:17:24 26° 99° (E) 2,012 4.0 -17.5°
Maximum altitude 18:21:20 74° 20° (NNE) 1,146 3.3 -18.1°
Drops below altitude 10° 18:27:52 10° 297° (WNW) 2,967 6.5 -19.2°
Sets 18:30:21 0° 296° (WNW) 3,926 7.4 -19.5°
